• In Netherlands
  • List of Countries
  • For 7 days
  • Water Temperature
  • Satellite Maps
  • Weather Map
  • Weather Widgets
  • user-avatar
    Login

    Hourly Weather Cincinnati

    Today, 21 November, Tuesday

    Time Temperature Precipitation Wind Pressure Humidity
    00:00 +1°C° 0 mm 4 mps 744 mmHg 60%
    01:00 +1°C° 0 mm 4 mps 744 mmHg 60%
    02:00 +3°C° 0 mm 4 mps 744 mmHg 60%
    03:00 +2°C° 0 mm 5 mps 744 mmHg 60%
    04:00 +2°C° 0 mm 5 mps 744 mmHg 60%
    05:00 +2°C° 0 mm 5 mps 744 mmHg 59%
    06:00 +2°C° 0 mm 5 mps 744 mmHg 59%
    07:00 +3°C° 0 mm 6 mps 744 mmHg 57%
    08:00 +4°C° 0 mm 6 mps 744 mmHg 54%
    09:00 +5°C° 0 mm 6 mps 744 mmHg 52%
    10:00 +8°C° 0 mm 6 mps 744 mmHg 50%
    11:00 +9°C° 0 mm 6 mps 743 mmHg 49%
    12:00 +10°C° 0 mm 6 mps 743 mmHg 47%
    13:00 +10°C° 0 mm 6 mps 743 mmHg 50%
    14:00 +10°C° 0 mm 5 mps 743 mmHg 54%
    15:00 +10°C° 0 mm 4 mps 743 mmHg 57%
    16:00 +8°C° 0 mm 4 mps 743 mmHg 62%
    17:00 +8°C° 0 mm 3 mps 744 mmHg 67%
    18:00 +7°C° 0 mm 3 mps 744 mmHg 71%
    19:00 +7°C° 0.1 mm 3 mps 745 mmHg 74%
    20:00 +5°C° 0.1 mm 4 mps 745 mmHg 77%
    21:00 +4°C° 0.1 mm 4 mps 746 mmHg 80%
    22:00 +3°C° 0.2 mm 4 mps 746 mmHg 78%
    23:00 +1°C° 0.2 mm 4 mps 747 mmHg 77%

    Tomorrow, 22 November, Wednesday

    Time Temperature Precipitation Wind Pressure Humidity
    00:00 0°C° 0.2 mm 4 mps 748 mmHg 75%
    01:00 0°C° 0 mm 3 mps 748 mmHg 76%
    02:00 -1°C° 0 mm 3 mps 748 mmHg 77%
    03:00 -1°C° 0 mm 2 mps 749 mmHg 78%
    04:00 -2°C° 0 mm 2 mps 749 mmHg 79%
    05:00 -2°C° 0 mm 2 mps 750 mmHg 80%
    06:00 -2°C° 0 mm 2 mps 751 mmHg 81%
    07:00 -1°C° 0 mm 2 mps 752 mmHg 76%
    08:00 +1°C° 0 mm 2 mps 752 mmHg 71%
    09:00 +1°C° 0 mm 3 mps 753 mmHg 66%
    10:00 +3°C° 0 mm 2 mps 752 mmHg 61%
    11:00 +4°C° 0 mm 2 mps 752 mmHg 56%
    12:00 +5°C° 0 mm 2 mps 752 mmHg 51%
    13:00 +5°C° 0 mm 2 mps 751 mmHg 52%
    14:00 +5°C° 0 mm 2 mps 751 mmHg 52%
    15:00 +5°C° 0 mm 2 mps 750 mmHg 52%
    16:00 +3°C° 0 mm 2 mps 751 mmHg 58%
    17:00 +2°C° 0 mm 2 mps 751 mmHg 63%
    18:00 +1°C° 0 mm 2 mps 751 mmHg 69%
    19:00 +1°C° 0 mm 1 mps 751 mmHg 70%
    20:00 +1°C° 0 mm 1 mps 751 mmHg 71%
    21:00 +1°C° 0 mm 1 mps 751 mmHg 72%
    22:00 0°C° 0 mm 1 mps 750 mmHg 72%
    23:00 0°C° 0 mm 1 mps 750 mmHg 71%

    Day after tomorrow, 23 November, Thursday

    Time Temperature Precipitation Wind Pressure Humidity
    00:00 0°C° 0 mm 1 mps 750 mmHg 71%
    01:00 0°C° 0 mm 1 mps 749 mmHg 71%
    02:00 0°C° 0 mm 1 mps 749 mmHg 70%
    03:00 +1°C° 0 mm 1 mps 749 mmHg 70%
    04:00 0°C° 0 mm 1 mps 749 mmHg 70%
    05:00 0°C° 0 mm 1 mps 748 mmHg 71%
    06:00 0°C° 0 mm 1 mps 748 mmHg 72%
    07:00 +2°C° 0 mm 1 mps 748 mmHg 67%
    08:00 +3°C° 0 mm 1 mps 748 mmHg 61%
    09:00 +4°C° 0 mm 1 mps 748 mmHg 56%
    10:00 +6°C° 0 mm 1 mps 748 mmHg 52%
    11:00 +6°C° 0 mm 2 mps 747 mmHg 48%
    12:00 +7°C° 0 mm 2 mps 746 mmHg 43%
    13:00 +7°C° 0 mm 2 mps 746 mmHg 45%
    14:00 +8°C° 0 mm 1 mps 745 mmHg 47%
    15:00 +8°C° 0 mm 1 mps 745 mmHg 49%
    16:00 +7°C° 0 mm 1 mps 745 mmHg 53%
    17:00 +5°C° 0 mm 1 mps 745 mmHg 58%
    18:00 +4°C° 0 mm 1 mps 745 mmHg 62%
    19:00 +3°C° 0 mm 1 mps 745 mmHg 64%
    20:00 +3°C° 0 mm 1 mps 746 mmHg 66%
    21:00 +3°C° 0 mm 1 mps 746 mmHg 68%
    22:00 +2°C° 0 mm 1 mps 746 mmHg 69%
    23:00 +2°C° 0 mm 1 mps 745 mmHg 69%

    24 November, Friday

    Time Temperature Precipitation Wind Pressure Humidity
    00:00 +1°C° 0 mm 0 mps 745 mmHg 70%
    01:00 +2°C° 0 mm 1 mps 745 mmHg 70%
    02:00 +2°C° 0 mm 1 mps 745 mmHg 71%
    03:00 +2°C° 0 mm 1 mps 745 mmHg 71%
    04:00 +1°C° 0 mm 1 mps 745 mmHg 71%
    05:00 +1°C° 0 mm 1 mps 745 mmHg 72%
    06:00 +1°C° 0 mm 1 mps 745 mmHg 72%
    07:00 +3°C° 0 mm 1 mps 745 mmHg 67%
    08:00 +3°C° 0 mm 2 mps 745 mmHg 62%
    09:00 +5°C° 0 mm 2 mps 745 mmHg 57%
    10:00 +5°C° 0 mm 3 mps 744 mmHg 54%
    11:00 +8°C° 0 mm 3 mps 744 mmHg 51%
    12:00 +9°C° 0 mm 3 mps 743 mmHg 48%
    13:00 +10°C° 0 mm 3 mps 742 mmHg 50%
    14:00 +10°C° 0 mm 3 mps 742 mmHg 53%
    15:00 +10°C° 0 mm 3 mps 741 mmHg 56%
    16:00 +8°C° 0 mm 3 mps 741 mmHg 61%
    17:00 +7°C° 0 mm 3 mps 740 mmHg 66%
    18:00 +5°C° 0 mm 4 mps 740 mmHg 71%
    19:00 +5°C° 0 mm 4 mps 740 mmHg 71%
    20:00 +5°C° 0 mm 4 mps 740 mmHg 71%
    21:00 +5°C° 0 mm 4 mps 740 mmHg 70%
    22:00 +5°C° 0.1 mm 4 mps 739 mmHg 72%
    23:00 +6°C° 0.1 mm 5 mps 739 mmHg 73%

    25 November, Saturday

    Time Temperature Precipitation Wind Pressure Humidity
    00:00 +6°C° 0.1 mm 5 mps 738 mmHg 75%
    01:00 +6°C° 0 mm 4 mps 738 mmHg 76%
    02:00 +6°C° 0 mm 4 mps 738 mmHg 77%
    03:00 +7°C° 0 mm 4 mps 738 mmHg 79%
    04:00 +7°C° 0 mm 3 mps 739 mmHg 83%
    05:00 +5°C° 0 mm 3 mps 739 mmHg 87%
    06:00 +4°C° 0 mm 3 mps 739 mmHg 91%
    07:00 +5°C° 0 mm 3 mps 739 mmHg 85%
    08:00 +7°C° 0 mm 3 mps 740 mmHg 79%
    09:00 +8°C° 0 mm 3 mps 740 mmHg 74%
    10:00 +10°C° 0 mm 4 mps 740 mmHg 65%
    11:00 +10°C° 0 mm 5 mps 740 mmHg 56%
    12:00 +11°C° 0 mm 6 mps 739 mmHg 47%
    13:00 +12°C° 0 mm 5 mps 739 mmHg 48%
    14:00 +10°C° 0 mm 5 mps 739 mmHg 49%
    15:00 +10°C° 0 mm 5 mps 739 mmHg 49%
    16:00 +8°C° 0 mm 5 mps 740 mmHg 54%
    17:00 +7°C° 0 mm 4 mps 741 mmHg 59%
    18:00 +5°C° 0 mm 4 mps 741 mmHg 63%
    19:00 +5°C° 0 mm 4 mps 742 mmHg 65%
    20:00 +4°C° 0 mm 4 mps 742 mmHg 66%
    21:00 +3°C° 0 mm 4 mps 742 mmHg 67%
    22:00 +3°C° 0 mm 4 mps 743 mmHg 66%
    23:00 +1°C° 0 mm 4 mps 743 mmHg 65%

    26 November, Sunday

    Time Temperature Precipitation Wind Pressure Humidity
    00:00 +1°C° 0 mm 4 mps 743 mmHg 64%
    01:00 0°C° 0 mm 4 mps 743 mmHg 66%
    02:00 0°C° 0 mm 4 mps 744 mmHg 68%
    03:00 0°C° 0 mm 3 mps 744 mmHg 69%
    04:00 0°C° 0 mm 3 mps 745 mmHg 71%
    05:00 -1°C° 0 mm 3 mps 745 mmHg 72%
    06:00 -1°C° 0 mm 3 mps 746 mmHg 73%
    07:00 -1°C° 0 mm 4 mps 746 mmHg 68%
    08:00 0°C° 0 mm 4 mps 747 mmHg 64%
    09:00 +1°C° 0 mm 4 mps 747 mmHg 60%
    10:00 +1°C° 0 mm 4 mps 747 mmHg 58%
    11:00 +1°C° 0 mm 4 mps 747 mmHg 56%
    12:00 +2°C° 0 mm 5 mps 746 mmHg 54%
    13:00 +2°C° 0 mm 5 mps 747 mmHg 54%
    14:00 +1°C° 0 mm 5 mps 747 mmHg 55%
    15:00 +1°C° 0 mm 5 mps 747 mmHg 55%
    16:00 +1°C° 0 mm 4 mps 748 mmHg 57%
    17:00 0°C° 0 mm 4 mps 748 mmHg 60%
    18:00 +1°C° 0 mm 3 mps 749 mmHg 62%
    19:00 0°C° 0 mm 3 mps 749 mmHg 66%
    20:00 -1°C° 0 mm 3 mps 749 mmHg 70%
    21:00 -2°C° 0 mm 2 mps 750 mmHg 74%
    22:00 -2°C° 0 mm 2 mps 750 mmHg 76%
    23:00 -2°C° 0 mm 2 mps 750 mmHg 77%
    Show more